SCP
0 0 0 0 0 0 0 0 0 0 -0 0 0 0 0 0 0 0 0 0 0 0 0 0 0 0 0 0 0 0 0 0 0 0 0 0 0 0 0 0 0 0 0 0
0 0 0 0 0 0 0 0 0 0 -0 0 0 0 0 0 0 0 0 0 0 0 0 0 0 0 0 0 0 0 0 0 0 0 0 0 0 0 0 0 0 0 0 0
0 0 0 0 0 0 0 0 0 0 0 0 0 0 0 0 0 0 0 0 0 0 0 0 0 0 0 0 0 0 0 0 0 0 0 0 0 0 0 0 0 0 0 0
0 0 0 0 0 0 0 0 0 0 0 0 0 0 0 0 0 -0 0 0 0 0 0 0 0 0 0 0 0 0 0 0 0 0 0 0 0 0 0 0 0 0 0 0
0 0 0 0 0 0 0 0 0 0 0 0 0 0 -0 -0 -0 -0 0 0 0 0 0 0 0 0 0 0 0 0 0 0 0 0 0 0 0 0 0 0 0 0 0 0
0 0 0 0 0 0 0 0 0 0 0 0 0 0 0 0 0 -0 0 0 0 0 0 0 0 0 0 0 0 0 0 0 0 0 0 0 0 0 0 0 0 0 0 0
0 0 0 0 0 0 0 0 0 0 0 0 0 0 0 0 0 0 0 0 0 0 0 0 0 0 0 0 0 0 0 0 0 0 0 0 0 0 0 0 0 0 0 0
0 0 0 0 0 0 0 0 0 0 0 0 0 0 0 0 0 0 0 0 0 0 0 0 0 0 0 0 0 0 0 0 0 0 0 0 0 0 0 0 0 0 0 0
0 0 0 0 0 0 0 0 0 0 0 0 0 0 0 0 0 0 0 0 0 0 0 0 0 0 0 0 0 0 0 0 0 0 0 0 0 0 0 0 0 0 0 0
0 0 0 0 0 0 0 0 0 0 0 0 0 0 0 0 0 0 0 0 0 0 0 0 0 0 0 0 0 0 0 0 0 0 0 0 0 0 0 0 0 0 0 0
0 0 0 0 0 0 0 0 0 0 0 0 0 0 0 0 0 0 0 0 0 0 0 0 0 0 0 0 0 0 0 0 0 0 0 0 0 0 0 0 0 0 0 0
0 0 0 0 0 0 0 0 0 0 0 0 0 0 0 0 0 0 0 0 0 0 0 0 0 0 0 0 0 0 0 0 0 0 0 0 0 0 0 0 0 0 0 0
0 0 0 0 0 0 0 0 0 0 0 0 0 0 0 0 0 0 0 0 0 0 0 0 0 0 0 0 0 0 0 0 0 0 0 0 0 0 0 0 0 0 0 -0
0 0 0 0 0 0 0 0 0 0 0 0 0 0 0 0 0 0 0 0 0 0 0 0 0 0 0 0 0 0 0 0 0 0 0 0 0 0 0 0 0 0 0 0
0 0 0 0 0 0 0 0 0 0 0 0 0 0 0 0 0 0 0 0 0 0 0 0 0 0 0 0 0 0 0 0 0 0 0 0 0 0 0 0 0 0 0 0
0 0 0 0 0 0 0 0 0 0 0 0 0 0 0 0 0 0 0 0 0 0 0 0 0 0 0 0 0 0 0 0 0 0 0 0 0 0 0 0 0 0 0 0
0 0 0 0 0 0 0 0 0 0 0 0 0 0 0 0 0 0 0 0 0 0 0 0 0 0 0 0 0 0 0 0 0 0 0 0 0 0 0 0 0 0 0 0
0 0 0 0 0 0 0 0 0 0 0 0 0 0 0 0 0 0 0 0 0 0 0 0 0 0 0 0 0 0 0 0 0 0 0 0 0 0 0 0 0 0 0 0
0 0 0 0 0 0 0 0 0 0 0 0 0 0 0 0 0 0 0 0 0 0 0 0 0 0 0 0 0 0 0 0 0 0 0 0 0 0 0 0 0 0 0 0
0 0 0 0 0 0 0 0 0 0 0 0 0 0 0 0 0 0 0 0 0 0 0 0 0 0 0 0 0 0 0 0 0 0 0 0 0 0 0 0 0 0 0 0
0 0 0 0 0 0 0 0 0 0 0 0 0 0 0 0 0 0 0 0 0 0 0 0 0 0 0 0 0 0 0 0 0 0 0 0 0 0 0 0 0 0 0 0
0 0 0 0 0 0 0 0 0 0 0 0 0 0 0 0 0 0 0 0 0 0 0 0 0 0 0 0 0 0 0 0 0 0 0 0 0 0 0 0 0 0 0 0
0 0 0 0 0 0 0 0 0 0 0 0 0 0 0 0 0 0 0 0 0 0 0 0 0 0 0 0 0 0 0 0 0 0 0 0 0 0 0 0 0 0 0 0
0 0 0 0 0 0 0 0 0 0 0 0 0 0 0 0 0 0 0 0 0 0 0 0 0 0 0 0 0 0 0 0 0 0 0 0 0 0 0 0 0 0 0 0
0 0 0 0 0 0 0 0 0 0 0 0 0 0 0 0 0 0 0 0 0 0 0 0 0 0 0 0 0 0 0 0 0 0 0 0 0 0 0 0 0 0 0 0
0 0 0 0 0 0 0 0 0 0 0 0 0 0 0 0 0 0 0 0 0 0 0 0 0 0 0 0 0 0 0 0 0 0 0 0 0 0 0 0 0 0 0 0
0 0 0 0 0 0 0 0 0 0 0 0 0 0 0 0 0 0 0 0 0 0 0 0 0 0 0 0 0 0 0 0 0 0 0 0 0 0 0 0 0 0 0 0
Wind_Speed
3 1 1 1 3 4 5 5 4 3 1 2 4 3 2 2 1 2 3 4 4 4 3 3 3 4 4 4 5 5 6 7 7 7 7 7 7 8 8 8 9 8 8 8
3 4 3 6 7 7 6 6 5 3 2 4 6 3 3 3 2 1 2 4 4 4 4 4 3 3 3 4 4 5 6 6 6 6 7 7 7 7 7 8 8 8 8 8
3 6 6 8 9 10 8 6 6 6 3 7 6 5 3 2 2 2 2 2 3 4 4 4 4 4 4 4 5 6 6 5 6 6 7 7 7 7 6 7 7 7 7 7
5 4 5 4 4 5 7 8 7 5 4 6 5 5 3 2 2 3 3 2 3 3 3 3 4 3 3 4 5 6 5 5 6 6 6 6 7 7 6 5 5 5 6 7
4 6 4 6 5 5 5 6 9 9 7 7 6 5 5 5 3 3 4 3 3 2 2 3 4 4 3 4 5 5 5 5 5 5 5 6 6 6 5 5 5 5 5 6
4 4 3 6 8 5 3 6 8 11 10 10 9 6 5 8 6 5 4 3 1 1 2 3 3 2 3 5 5 5 4 4 4 4 4 5 5 5 4 4 4 4 5 6
6 6 2 8 9 6 3 2 5 9 9 11 10 4 6 9 8 6 4 3 1 1 1 2 2 2 3 5 5 4 4 4 3 3 3 4 4 4 4 4 4 4 5 5
4 5 1 10 8 6 3 3 3 5 8 9 7 7 7 8 7 6 5 4 2 1 0 1 1 2 3 4 3 3 2 2 2 3 4 4 3 4 4 4 4 5 4 5
2 1 6 8 7 5 3 1 3 5 6 8 8 8 8 8 8 6 5 5 3 2 2 1 1 1 2 3 2 2 1 1 1 1 2 3 3 4 4 4 4 4 4 4
4 4 5 9 8 6 5 3 3 5 6 8 8 8 8 8 8 7 6 5 4 4 3 2 3 2 2 2 1 1 1 1 1 2 2 3 3 3 4 4 4 4 4 4
6 6 4 5 8 8 6 5 5 5 6 8 8 8 9 8 7 7 6 5 4 4 3 2 3 3 3 2 2 2 2 2 3 3 2 2 2 2 3 3 2 2 3 4
5 3 2 1 5 7 8 8 7 7 7 8 8 8 8 8 7 7 7 6 5 5 4 3 3 4 4 4 3 3 1 1 1 2 2 1 2 2 2 2 3 3 3 3
6 4 3 3 0 5 7 8 8 8 8 8 8 8 8 7 7 7 7 7 7 6 5 4 3 3 4 5 4 3 1 1 1 1 1 2 2 2 2 2 1 0 0 2
3 3 4 4 3 4 6 8 9 10 9 8 8 8 8 7 7 8 8 7 7 6 6 5 4 4 4 4 4 3 2 1 2 2 1 2 1 1 1 2 2 2 3 4
4 4 5 5 4 4 5 6 8 9 9 10 9 9 9 8 8 8 7 7 7 6 6 5 5 5 4 4 3 3 3 2 3 2 2 2 2 2 2 2 2 2 3 3
9 5 4 5 7 6 6 7 9 9 9 10 10 10 10 9 8 7 7 7 7 7 7 6 6 5 5 5 3 2 2 3 2 2 2 3 3 3 3 2 2 1 3 3
11 9 8 7 7 8 8 8 9 9 10 10 10 10 9 9 9 8 8 8 7 7 7 7 6 5 6 5 4 3 3 4 6 3 3 3 3 3 3 2 2 2 2 3
11 11 11 11 9 8 9 9 9 9 9 9 9 10 10 11 10 9 8 8 8 7 7 6 6 6 6 6 5 3 3 3 4 4 4 4 3 3 3 3 3 3 3 4
15 14 14 13 12 11 10 9 8 8 9 8 9 11 10 10 9 9 9 9 10 9 8 7 9 7 7 7 6 4 4 4 4 4 4 4 4 3 3 3 3 3 4 4
15 15 15 14 13 11 10 10 8 7 7 8 8 9 10 10 9 9 9 9 8 7 7 8 9 7 7 8 9 4 5 5 4 3 3 4 4 4 4 4 4 4 4 4
16 16 15 15 14 13 11 11 9 7 6 6 7 9 9 9 9 9 8 8 7 8 9 10 7 6 6 7 10 6 5 5 4 4 3 3 4 4 4 4 4 4 4 4
14 14 15 14 14 13 12 11 10 8 6 5 6 6 7 8 9 9 9 7 6 11 8 6 6 8 9 9 6 6 5 5 4 4 4 4 4 4 4 4 4 3 3 3
13 13 14 15 14 13 13 12 12 9 7 5 4 5 6 5 5 6 6 6 6 11 8 6 9 12 13 8 6 6 6 6 5 5 4 4 4 4 4 4 4 3 3 3
12 13 13 13 14 13 14 14 13 10 9 7 5 4 4 3 3 4 4 7 11 12 8 9 13 14 14 7 6 6 6 6 6 5 5 4 4 4 4 4 3 3 3 4
11 11 12 12 11 10 12 13 13 12 12 9 9 8 5 3 2 2 2 4 9 11 7 9 14 15 10 6 6 6 6 6 6 5 5 5 5 4 4 4 3 3 3 3
9 8 8 9 8 7 8 9 9 9 10 10 9 9 8 6 5 3 2 1 5 7 6 5 7 10 7 7 6 7 6 7 7 6 6 5 5 5 5 5 5 4 4 4
8 7 6 6 6 6 7 7 8 8 8 9 10 9 9 8 7 6 5 2 1 2 3 3 4 6 6 6 6 6 5 5 5 6 6 6 5 5 5 6 5 4 4 4
Wind_Direction
76 36 336 272 233 228 258 295 317 21 45 151 135 142 146 153 98 27 31 24 31 32 22 26 45 39 30 23 29 36 37 28 17 17 17 17 16 19 19 18 22 23 26 29
206 196 238 252 235 229 239 252 262 270 256 123 129 155 176 163 130 65 41 29 24 26 19 20 43 52 42 39 40 45 45 32 18 21 19 14 19 21 20 21 22 27 29 30
255 167 244 253 218 210 216 218 230 242 192 141 162 178 183 156 150 120 70 46 33 21 20 13 29 45 46 46 49 49 44 38 26 24 21 14 17 21 22 24 25 30 30 30
282 218 258 98 99 173 213 223 220 228 158 162 172 162 170 177 164 126 103 72 51 20 7 2 25 39 47 66 63 57 43 38 35 27 20 15 15 16 21 24 29 30 30 28
282 294 268 143 157 171 207 239 215 212 190 175 165 174 191 176 150 114 103 90 71 353 341 17 23 19 26 59 66 59 47 42 37 29 21 18 15 13 17 21 26 29 30 33
290 286 308 108 129 142 203 259 202 193 188 177 178 208 187 159 154 142 122 113 107 293 7 31 19 4 26 60 63 54 45 48 41 31 27 25 13 9 12 20 23 33 40 42
265 276 302 116 128 146 213 0 136 175 179 180 193 203 143 148 149 141 138 136 169 285 36 24 359 4 44 62 67 60 46 45 35 25 36 39 15 5 12 19 26 37 47 49
219 250 225 137 153 197 233 113 161 181 178 180 177 152 139 140 140 147 153 160 177 261 18 58 13 8 70 80 86 93 81 64 50 37 27 31 16 10 15 16 28 34 38 43
263 350 118 173 198 226 274 219 175 188 181 176 175 165 158 156 158 165 169 167 173 216 233 185 134 38 74 108 108 124 132 128 108 89 75 34 15 20 20 20 26 29 31 34
290 274 195 201 220 227 232 235 199 190 183 179 182 176 171 175 174 171 173 172 177 211 229 191 151 149 126 124 169 207 189 169 137 82 70 61 32 27 38 26 21 20 23 26
258 267 253 210 211 221 217 215 210 198 191 189 189 187 182 187 184 175 170 170 179 208 226 204 170 172 157 166 229 241 218 180 143 126 107 85 86 49 53 70 64 34 15 17
251 283 279 255 190 205 211 209 209 205 201 196 195 195 191 192 184 175 171 170 181 207 223 218 186 179 163 166 231 263 271 92 118 142 147 161 154 131 62 89 114 87 65 55
269 320 337 5 127 205 213 209 206 209 207 201 200 199 198 195 184 179 179 179 187 198 209 216 195 194 172 169 212 246 231 193 177 172 161 193 196 183 175 185 219 298 79 76
344 330 290 271 246 230 227 213 207 211 211 206 202 199 200 200 194 189 190 188 187 193 197 202 201 204 191 179 193 225 225 191 191 183 204 223 217 223 205 178 186 200 213 215
311 284 278 292 281 236 228 217 211 211 210 208 203 202 201 203 203 197 193 187 182 190 202 206 205 202 184 181 198 218 217 198 194 195 207 220 218 228 231 219 209 179 155 187
323 303 284 282 280 266 240 229 224 218 212 209 206 204 204 204 204 196 190 189 187 193 202 208 210 197 174 177 201 217 221 200 188 211 227 226 220 221 225 224 225 202 166 167
344 333 318 291 271 263 253 243 236 229 220 213 209 204 203 203 202 200 195 191 191 194 199 204 202 187 172 176 191 209 216 196 192 214 236 239 232 226 226 221 214 203 176 157
345 334 326 316 304 285 265 251 242 236 229 219 207 204 204 205 206 203 196 190 190 199 208 205 192 183 177 181 191 209 224 209 192 206 217 227 234 234 232 231 227 212 181 172
352 345 338 329 319 308 295 277 256 239 230 222 211 208 207 208 205 201 198 196 198 203 203 202 202 192 182 185 188 198 225 233 220 215 210 213 216 230 239 238 231 223 203 179
354 349 343 335 327 317 307 299 284 259 234 222 218 212 209 208 203 201 202 206 202 194 185 191 193 191 192 186 182 194 215 233 233 224 218 215 215 224 230 229 225 223 221 206
354 351 347 342 335 328 319 310 298 281 257 230 223 221 215 209 204 201 202 210 200 181 181 189 189 183 190 182 177 192 207 225 230 227 224 222 225 232 236 237 229 220 220 217
351 349 347 344 340 335 331 324 316 304 286 259 236 230 223 215 208 207 204 195 183 179 177 179 185 186 187 178 176 190 201 218 226 224 222 223 227 234 240 244 241 232 224 219
348 349 349 347 343 339 340 340 334 324 314 297 270 246 236 226 209 204 209 189 177 179 181 184 187 190 187 180 179 188 199 211 219 221 219 219 223 228 234 240 239 238 234 228
343 345 346 347 347 349 348 346 342 339 337 330 320 302 270 243 231 216 203 186 184 178 184 190 188 189 185 190 190 193 201 208 211 214 217 219 223 229 233 233 231 230 234 237
334 336 340 343 348 348 344 344 346 351 351 348 344 337 326 309 270 232 203 180 178 174 182 188 187 186 187 197 198 201 202 205 207 206 209 213 218 223 230 234 232 231 232 233
322 323 326 329 336 340 341 345 348 353 355 352 347 347 346 348 357 6 6 132 160 175 182 178 182 189 198 203 207 208 204 203 206 207 209 210 216 216 218 223 233 231 231 232
308 310 313 319 330 340 341 343 347 349 354 351 341 343 347 351 357 360 358 3 106 173 194 194 188 191 198 203 210 214 212 206 198 196 200 206 211 217 219 220 219 221 225 229